Printer-friendly version

IAU Minor Planet Center

Minor Planet Center

(64) Angelina

Orbital Elements

The following orbital elements are taken from MPC 25033:
   (64) Angelina
Epoch 2000 Feb. 26.0 TT = JDT 2451600.5  (M-c)          Bowell
M 267.90010              (2000.0)            P               Q
n   0.22418539     Peri.  178.63569     -0.61944500     -0.78484363
a   2.6836827      Node   309.63958     +0.72004403     -0.55910511
e   0.1249561      Incl.    1.30664     +0.31276906     -0.26724885
P   4.40           H    7.67          G   0.48           U   0
From 197 observations at 45 oppositions, 1894-1993, mean residual 0".88.
An explanation of the orbital elements is available.

These orbital elements are also available in forms suitable for loading into a number of popular planetarium-type software programs.


Ephemeris

The following ephemeris is at intervals of five days. A daily ephemeris covering the same time interval is also available.

Date    TT    R. A. (2000) Decl.     Delta      r     Elong.  Phase     V
 
2000 10 13    06 48.10   +24 11.8    2.088    2.450    99.0    23.7    11.9
2000 10 18    06 52.57   +24 07.3    2.021    2.445   102.9    23.4    11.9
2000 10 23    06 56.46   +24 03.1    1.956    2.440   107.0    22.9    11.8
2000 10 28    06 59.73   +23 59.4    1.893    2.436   111.2    22.3    11.7
2000 11 02    07 02.33   +23 56.4    1.831    2.431   115.6    21.6    11.6
2000 11 07    07 04.22   +23 54.2    1.771    2.426   120.2    20.7    11.5
2000 11 12    07 05.35   +23 53.0    1.714    2.422   125.0    19.6    11.4
2000 11 17    07 05.70   +23 52.8    1.661    2.417   129.9    18.3    11.3
2000 11 22    07 05.24   +23 53.7    1.611    2.413   135.1    16.8    11.2
2000 11 27    07 03.94   +23 55.7    1.565    2.409   140.4    15.1    11.1
2000 12 02    07 01.83   +23 58.4    1.523    2.405   146.0    13.3    11.0
2000 12 07    06 58.95   +24 01.9    1.487    2.401   151.7    11.2    10.9
2000 12 12    06 55.35   +24 05.7    1.457    2.397   157.6     9.0    10.8
2000 12 17    06 51.15   +24 09.5    1.433    2.393   163.6     6.6    10.7
2000 12 22    06 46.45   +24 13.1    1.415    2.390   169.8     4.2    10.5
2000 12 27    06 41.43   +24 16.0    1.405    2.387   175.9     1.7    10.4
2001 01 01    06 36.26   +24 18.0    1.401    2.383   177.4     1.1    10.4
2001 01 06    06 31.14   +24 19.0    1.404    2.380   171.3     3.6    10.5
2001 01 11    06 26.27   +24 18.9    1.413    2.377   165.1     6.1    10.6
2001 01 16    06 21.79   +24 17.8    1.430    2.374   159.0     8.5    10.7
2001 01 21    06 17.87   +24 15.8    1.452    2.372   153.1    10.8    10.8

Back to Bright Minor Planets

Astronomical Headlines Index


Valid HTML 4.01!